FENGYUN 1C DEB

Satellite information

Favourite Embed

Satellite Type and Status

DEBRISIN ORBIT

Key statistics

Satellite FENGYUN 1C DEB at a glance.

Uptime

9665

Days in orbit

Revolutions

≈ 13.8

Per day

Orbit

SSO

Sun Synchronous Orbit

Inclination

98.8

Latest

Satellite identification and parameters

Extended collection of information and parameters for FENGYUN 1C DEB.

Object identification

Identified? True

Debris? True

Object name: FENGYUN 1C DEB

International designator: 1999-025BDU

Object number (NORAD): 31026

Object ID (CCSDS): 31026

Country: PEOPLES REPUBLIC OF CHINA (PRC)

Current information (Y/N): Y

RCS size: SMALL

Orbital parameters

Period: 104.094 minutes

Inclination: 98.7701 deg

SMA: 7330.123 km

Apoapsis: 1050.525 km

Periapsis: 853.451 km

RAAN: 231.7519 deg

Eccentricy: 0.01344272

Argument of periapsis: 329.9244 deg

Mean anomaly: 209.8981 deg

Mean motion: 13.83362077 rev/day

Mean motion (dot): 0.00000404 rev/day2

B* drag term: 0.00037719205 1/REarth

Two-line elements (TLE)

Creation date: Oct. 20, 2025, 2:10 a.m.

Reference frame: TEME

Reference center: EARTH

Epoch: Oct. 19, 2025, 2:01 p.m. UTC

TLE line 0: 0 FENGYUN 1C DEB

TLE line 1: 1 31026U 99025BDU 25292.58425383 .00000404 00000-0 37719-3 0 9993

TLE line 2: 2 31026 98.7701 231.7519 0134427 329.9244 209.8981 13.83362077672774

Live tracking on map

Real-time ground track for satellite FENGYUN 1C DEB.

In-orbit conjunctions

A list of the most updated potential collisions computed for object FENGYUN 1C DEB.

Target Orbit TCA Probability of collision Miss distance Type
NOAA 16 DEB SSO 2025-02-27 14:41:20 0.0002770296 47.0 (m) DEBRIS
COSMOS 1375 DEB LEO 2024-10-26 14:15:29 0.0001215238 219.0 (m) DEBRIS

Associated space launch

Chinese polar orbiting meteorological satellite

FENGYUN 1C DEB was lifted into orbit during the mission ‘Long March 4B | Feng Yun 1C’, on board a Long March 4B space rocket.

The launch took place on May 10, 1999, 1:33 a.m. from Launch Complex 7.

For more information about the launch, click the button.

Launch to space Long March 4B | Feng Yun 1C
Long March 4B | Feng Yun 1C

Agency: N/A

Status: Launch Successful

Launch date: May 10, 1999, 1:33 a.m. UTC

Rocket: Long March 4B

Launch pad: Launch Complex 7

Location: Taiyuan Satellite Launch Center, People's Republic of China

...

Latest news about this satellite

There are no fresh news available about this satellite. Check back as we update our databases every day.


Newsletter sign-up

Weekly statistics, charts and insights to help you stay on top of the space industry.